This demonstration page uses our WeatherBlox Daily Observations layout. Learn more.

Left ArrowRight Arrow

39.01783, -85.05884

Hourly Observations for March 28, 2018

Temp ( °F °C ) Dew Point ( °F °C ) Humidity (%) Winds ( mph kmh ) Pressure ( in mb ) Visibility ( mi km ) Precip ( " mm )
12:05 am 00:05 Cloudy with Light Rain 54 12.2 54 12.2 100 100 SW 3 6 30.03 1017 1 2 0.01 0.25
12:18 am 00:18 Cloudy with Light Rain 55 12.8 55 12.8 100 100 S 3 6 30.03 1017 1 2 0.02 0.51
12:52 am 00:52 Cloudy with Light Rain 54 12.2 54 12.2 100 100 S 5 7 30.01 1016 1 2 0.04 1.02
1:04 am 01:04 Cloudy with Light Rain 54 12.2 54 12.2 100 100 SSW 5 7 30.03 1017 1 1 0.01 0.25
1:32 am 01:32 Cloudy with Light Rain 54 12.2 54 12.2 100 100 S 5 7 30.00 1016 1 2 0.02 0.51
1:52 am 01:52 Cloudy with Light Rain 54 12.2 54 12.2 100 100 S 5 7 30.00 1016 1 2 0.03 0.76
1:54 am 01:54 Cloudy with Light Rain 54 12.2 54 12.2 100 100 SSW 5 7 30.00 1016 1 2 N/A
2:14 am 02:14 Cloudy with Light Rain 54 12.2 54 12.2 100 100 SSW 6 9 30.00 1016 1 1 0.01 0.25
2:38 am 02:38 Cloudy with Light Rain 54 12.2 54 12.2 100 100 SSW 5 7 30.00 1016 1 1 0.03 0.76
2:52 am 02:52 Cloudy with Light Rain 54 12.2 54 12.2 100 100 N N/A 29.98 1015 1 1 0.05 1.27
3:52 am 03:52 Cloudy with Light Rain 54 12.2 54 12.2 100 100 N N/A 29.96 1015 1 2 0.04 1.02
4:52 am 04:52 Cloudy with Light Rain 53 11.7 53 11.7 100 100 N N/A 29.95 1014 1 2 0.03 0.76
5:52 am 05:52 Cloudy with Light Rain 53 11.7 53 11.7 100 100 NE 3 6 29.93 1014 1 2 0.04 1.02
6:31 am 06:31 Cloudy with Light Rain 53 11.7 53 11.7 100 100 N N/A 29.97 1015 1 2 0.02 0.51
6:52 am 06:52 Cloudy with Rain 54 12.2 54 12.2 100 100 NNW 5 7 29.97 1015 1 2 0.06 1.52
7:38 am 07:38 Cloudy with Light Rain 54 12.2 54 12.2 100 100 N 8 13 29.97 1015 1 2 0.09 2.29
7:52 am 07:52 Cloudy with Light Rain 53 11.7 53 11.7 100 100 N 6 9 29.96 1014 1 2 0.10 2.54
8:16 am 08:16 Cloudy with Light Rain 54 12.2 54 12.2 100 100 NE 6 9 29.94 1014 1 2 0.01 0.25
8:52 am 08:52 Cloudy with Light Rain 54 12.2 54 12.2 100 100 ENE 8 13 29.94 1014 1 2 0.02 0.51
9:52 am 09:52 Cloudy with Light Rain 54 12.2 54 12.2 100 100 E 7 11 29.95 1014 1 2 0.01 0.25
10:32 am 10:32 Cloudy with Light Rain 55 12.8 54 12.2 96 96 ESE 6 9 29.94 1014 1 2 0.01 0.25
10:52 am 10:52 Cloudy with Mist and Fog 55 12.8 55 12.8 100 100 ESE 3 6 29.95 1014 3 4 0.02 0.51
11:14 am 11:14 Cloudy with Light Rain 56 13.3 55 12.8 97 97 N N/A 29.97 1015 3 4 N/A
11:52 am 11:52 Cloudy with Rain 56 13.3 55 12.8 97 97 N N/A 29.96 1015 2 3 0.01 0.25
12:03 pm 12:03 Cloudy with Rain 56 13.3 55 12.8 97 97 N N/A 29.97 1015 2 2 0.02 0.51
12:32 pm 12:32 Cloudy with Light Rain 56 13.3 56 13.3 100 100 N N/A 29.94 1014 2 3 0.09 2.29
12:36 pm 12:36 Cloudy with Light Rain 56 13.3 56 13.3 100 100 N N/A 29.94 1014 1 2 0.09 2.29
12:52 pm 12:52 Cloudy with Light Rain 57 13.9 56 13.3 96 96 N N/A 29.93 1014 1 2 0.10 2.54
1:46 pm 13:46 Cloudy with Mist and Fog 57 14 57 14 100 100 N N/A 29.94 1014 2 3 0.01 0.25
1:52 pm 13:52 Cloudy with Mist and Fog 57 13.9 57 13.9 100 100 N N/A 29.92 1013 2 3 0.01 0.25
2:19 pm 14:19 Cloudy with Light Rain 58 14.4 57 13.9 97 97 S 3 6 29.91 1013 2 3 N/A
2:23 pm 14:23 Cloudy with Light Rain 58 14.4 57 13.9 97 97 S 3 6 29.91 1013 4 6 N/A
2:52 pm 14:52 Cloudy with Light Rain 58 14.4 57 13.9 97 97 S 8 13 29.89 1012 9 14 N/A
3:52 pm 15:52 Cloudy with Light Rain 58 14.4 57 13.9 97 97 N N/A 29.89 1012 9 14 0.01 0.25
4:32 pm 16:32 Cloudy with Light Rain 58 14.4 57 13.9 97 97 NW 7 11 29.91 1013 3 4 0.01 0.25
4:36 pm 16:36 Cloudy with Drizzle 58 14.4 57 13.9 97 97 NW 5 7 29.91 1013 2 2 0.01 0.25
4:52 pm 16:52 Cloudy with Light Rain 58 14.4 57 13.9 97 97 NW 6 9 29.89 1012 2 2 0.02 0.51
5:52 pm 17:52 Cloudy with Light Rain 58 14.4 57 13.9 97 97 WSW 5 7 29.89 1012 2 2 0.02 0.51
6:52 pm 18:52 Cloudy with Mist and Fog 58 14.4 57 13.9 97 97 W 3 6 29.89 1012 3 4 0.01 0.25
7:52 pm 19:52 Cloudy with Mist and Fog 57 13.9 57 13.9 100 100 W 5 7 29.91 1013 3 4 N/A
8:16 pm 20:16 Cloudy with Patchy Fog 57 13.9 57 13.9 100 100 WNW 6 9 29.91 1013 2 2 N/A
8:22 pm 20:22 Cloudy with Patchy Fog 57 13.9 57 13.9 100 100 NNW 6 9 29.91 1013 1 2 N/A
8:32 pm 20:32 Cloudy with Patchy Fog 56 13.3 56 13.3 100 100 N 7 11 29.91 1013 1 2 0.01 0.25
8:52 pm 20:52 Cloudy with Drizzle 56 13.3 56 13.3 100 100 N 3 6 29.90 1013 1 2 0.01 0.25
9:06 pm 21:06 Cloudy with Light Rain 56 13.3 56 13.3 100 100 N N/A 29.91 1013 1 2 N/A
9:33 pm 21:33 Cloudy with Patchy Fog 56 13.3 56 13.3 100 100 N N/A 29.94 1014 1 1 N/A
9:52 pm 21:52 Cloudy with Light Rain 56 13.3 55 12.8 97 97 N N/A 29.93 1013 1 1 0.01 0.25
10:19 pm 22:19 Mostly Cloudy with Fog 55 12.8 55 12.8 100 100 N N/A 29.94 1014 1 1 N/A
10:52 pm 22:52 Mostly Cloudy with Fog 55 12.8 55 12.8 100 100 N 3 6 29.92 1013 1 1 N/A
11:52 pm 23:52 Mostly Cloudy with Mist and Fog 55 12.8 55 12.8 100 100 N N/A 29.91 1013 1 1 0.01 0.25

Powered by AerisWeather